Regional Weather Roundup
Issued by NWS

Home | Current Version | Previous Version | Text Only | Print | Product List | Glossary On
Versions: 1 2 3 4 5 6 7 8 9 10 11 12 13 14 15 16 17 18 19 20 21 22 23 24 25 26 27 28 29 30 31 32 33 34 35 36 37 38 39 40 41 42 43 44 45 46 47 48 49 50
000
ASUS45 KABQ 280810
RWRNM
NEW MEXICO REGIONAL WEATHER ROUNDUP
NATIONAL WEATHER SERVICE ALBUQUERQUE NM
200 AM MDT SAT MAY 28 2016

NOTE: "FAIR" MEANS FEW OR NO CLOUDS BELOW 12,000 FEET AGL WITH NO
       SIGNIFICANT WEATHER OR OBSTRUCTIONS TO VISION.

      THIS PRODUCT IS RELEASED AS TWO VERSIONS.  ONE VERSION NEAR
      THE TOP OF THE HOUR CONTAINING PRELIMINARY DATA FROM ALBUQUERQUE
      AND OTHER STATIONS.  A FINAL VERSION WITH ADDITIONAL DATA IS
      ISSUED ABOUT 10 MINUTES AFTER THE HOUR.

NMZ501-503-504-510>518-280900-
NORTHWEST PLATEAU/NORTHCENTRAL MOUNTAINS

CITY           SKY/WX    TMP DP  RH WIND       PRES   REMARKS
FARMINGTON     FAIR      49  31  49 E8        30.01R
LOS ALAMOS     FAIR      48  31  51 NW5       30.09S
SANTA FE       FAIR      45  30  55 N8        30.04S
TAOS           FAIR      32  25  74 N3        30.10S
ANGEL FIRE     FAIR      27  26  94 CALM      30.13S

$$
NMZ402-403-502-505>509-280900-
WESTCENTRAL MOUNTAINS/SOUTHWEST MOUNTAINS

CITY           SKY/WX    TMP DP  RH WIND       PRES   REMARKS
GALLUP         FAIR      43  25  49 E3        30.07R
GRANTS         FAIR      40  22  48 NW3       30.09R
SILVER CITY      N/A     54  19  26 N9        30.03S

$$
NMZ407-409-411-412-280900-
SOUTHERN DESERTS

CITY           SKY/WX    TMP DP  RH WIND       PRES   REMARKS
LORDSBURG      FAIR      55  18  22 W7        29.96R
DEMING         FAIR      55  19  24 SW7       29.96S
LAS CRUCES     FAIR      58  19  21 NW7       29.96S
HOLLOMAN AFB   FAIR      63  19  18 SE8       29.92R
ALAMOGORDO     FAIR      59  19  21 S6        29.94S
T OR C         FAIR      63  23  21 NW7       29.97S

$$
NMZ519>523-280900-
CENTRAL VALLEYS/CENTRAL HIGHLANDS

CITY           SKY/WX    TMP DP  RH WIND       PRES   REMARKS
ALBUQUERQUE    FAIR      57  24  28 S5        30.00R
DOUBLE EAGLE   FAIR      46  27  46 NW7       30.03S
MORIARTY ARPT  FAIR      40  24  54 CALM      30.06R
CLINES CORNERS FAIR      47  26  44 W3        30.06S
BELEN          FAIR      54  22  28 CALM      30.01R
SOCORRO        FAIR      61  22  22 CALM      29.98R

$$
NMZ524>526-539-540-280900-
SOUTHCENTRAL MOUNTAINS

CITY           SKY/WX    TMP DP  RH WIND       PRES   REMARKS
RUIDOSO          N/A     54  19  26 SW9       30.10S

$$
NMZ527>531-280900-
NORTHEAST HIGHLANDS/NORTHEAST PLAINS

CITY           SKY/WX    TMP DP  RH WIND       PRES   REMARKS
LAS VEGAS      FAIR      38  33  82 NE9       30.06S WCI  31
RATON          FAIR      40  34  79 CALM      30.02S
CLAYTON        FAIR      52  40  63 NW9       29.96R

$$
NMZ532>537-280900-
EASTCENTRAL PLAINS

CITY           SKY/WX    TMP DP  RH WIND       PRES   REMARKS
TUCUMCARI      FAIR      49  41  74 N9        29.94R
CANNON AFB     MOCLDY    53  41  63 N7        29.94R
CLOVIS AIRPORT FAIR      52  39  62 E6        29.93R

$$
NMZ028-029-538-280900-
SOUTHEAST PLAINS

CITY           SKY/WX    TMP DP  RH WIND       PRES   REMARKS
ROSWELL        FAIR      66  28  24 N12       29.90S
ARTESIA        FAIR      64  21  19 W13       29.88S
CARLSBAD       FAIR      69  16  13 W12       29.85F
HOBBS          FAIR      59  19  21 W7        29.90S


$$




USA.gov is the U.S. government's official web portal to all federal, state and local government web resources and services.